Location: Laterina
(43.5167°N, 11.7167°E)
Time: 14:07:08
(UTC+00:00)

Cosmos 2026 Rocket - Pass Details

Date: 19 January 2021
Orbit: 940 x 1000 km, 82.9° (Epoch: 28 February)

Event Time Altitude Azimuth Distance (km) Brightness Sun altitude
Rises 19:07:05 0° 202° (SSW) 3,596 7.2 -32.2°
Reaches altitude 10° 19:09:38 10° 208° (SSW) 2,660 6.5 -32.7°
Maximum altitude 19:15:31 50° 283° (WNW) 1,196 4.7 -33.7°
Enters shadow 19:18:53 26° 346° (NNW) 1,819 5.5 -34.4°
Exits shadow 19:23:48 - 3° (N) 3,538 7.0 -35.2°
Sets 19:24:09 0° 4° (N) 3,672 7.0 -35.3°
